Location: Pedholt
(56.0260°N, 10.2097°E)
Time: 05:37:09
(UTC+00:00)

Vanguard 3 - Pass Details

Date: 02 August 2021
Orbit: 510 x 3260 km, 33.3° (Epoch: 19 September)

Event Time Altitude Azimuth Distance (km) Brightness Sun altitude
Rises 23:27:23 0° 270° (W) 7,134 12.0 -16.5°
Reaches altitude 10° 23:36:47 10° 247° (WSW) 6,194 11.4 -16.4°
Maximum altitude 23:43:08 12° 228° (SW) 5,862 11.1 -16.4°
Enters shadow 23:47:29 11° 214° (SW) 5,821 11.0 -16.3°
